Time,TemperatureF,DewpointF,PressureIn,WindDirection,WindDirectionDegrees,WindSpeedMPH,WindSpeedGustMPH,Humidity,HourlyPrecipIn,Conditions,Clouds,dailyrainin,SoftwareType,DateUTC
2015-03-29 00:23:00,26.0,15.0,-100.00,SSE,165,1.0,2.0,62,0.00,,,-99.99,,2015-03-29 04:23:00,
2015-03-29 00:53:00,25.0,15.0,-100.00,SE,130,0.0,1.0,66,0.00,,,-99.99,,2015-03-29 04:53:00,
2015-03-29 01:12:00,24.0,15.0,-100.00,SSE,165,0.0,1.0,67,0.00,,,-99.99,,2015-03-29 05:12:00,
2015-03-29 01:22:00,25.0,14.0,-100.00,NNW,340,0.0,1.0,63,0.00,,,-99.99,,2015-03-29 05:22:00,
2015-03-29 01:52:00,23.0,15.0,-100.00,ENE,60,0.0,1.0,69,0.00,,,-99.99,,2015-03-29 05:52:00,
2015-03-29 02:22:00,22.0,15.0,-100.00,NNW,330,0.0,1.0,71,0.00,,,-99.99,,2015-03-29 06:22:00,
2015-03-29 02:51:00,22.0,15.0,-100.00,SE,140,0.0,1.0,74,0.00,,,-99.99,,2015-03-29 06:51:00,
2015-03-29 03:01:00,22.0,15.0,-100.00,SE,140,0.0,1.0,74,0.00,,,-99.99,,2015-03-29 07:01:00,
2015-03-29 03:21:00,22.0,15.0,-100.00,East,80,0.0,1.0,72,0.00,,,-99.99,,2015-03-29 07:21:00,
2015-03-29 03:32:00,22.0,15.0,-100.00,East,80,0.0,1.0,72,0.00,,,-99.99,,2015-03-29 07:32:00,
2015-03-29 03:51:00,21.0,15.0,-100.00,ENE,70,0.0,0.0,79,0.00,,,-99.99,,2015-03-29 07:51:00,
2015-03-29 04:02:00,21.0,15.0,-100.00,ENE,70,0.0,0.0,79,0.00,,,-99.99,,2015-03-29 08:02:00,
2015-03-29 04:21:00,21.0,16.0,-100.00,ENE,70,0.0,1.0,81,0.00,,,-99.99,,2015-03-29 08:21:00,
2015-03-29 04:51:00,21.0,15.0,-100.00,East,100,1.0,2.0,77,0.00,,,-99.99,,2015-03-29 08:51:00,
2015-03-29 05:22:00,22.0,14.0,-100.00,East,95,2.0,3.0,73,0.00,,,-99.99,,2015-03-29 09:22:00,
2015-03-29 05:52:00,21.0,14.0,-100.00,ENE,65,2.0,3.0,73,0.00,,,-99.99,,2015-03-29 09:52:00,
2015-03-29 06:22:00,21.0,14.0,-100.00,ENE,75,2.0,4.0,73,0.00,,,-99.99,,2015-03-29 10:22:00,
2015-03-29 06:52:00,21.0,13.0,-100.00,East,80,3.0,6.0,71,0.00,,,-99.99,,2015-03-29 10:52:00,
2015-03-29 07:22:00,21.0,13.0,-100.00,East,85,2.0,4.0,70,0.00,,,-99.99,,2015-03-29 11:22:00,
2015-03-29 07:52:00,21.0,13.0,-100.00,ENE,75,2.0,4.0,72,0.00,,,-99.99,,2015-03-29 11:52:00,
2015-03-29 08:22:00,23.0,14.0,-100.00,NE,55,4.0,7.0,68,0.00,,,-99.99,,2015-03-29 12:22:00,
2015-03-29 08:51:00,25.0,13.0,-100.00,East,85,6.0,11.0,61,0.00,,,-99.99,,2015-03-29 12:51:00,
2015-03-29 09:21:00,27.0,14.0,-100.00,ENE,75,10.0,12.0,58,0.00,,,-99.99,,2015-03-29 13:21:00,
2015-03-29 09:51:00,29.0,14.0,-100.00,East,80,11.0,16.0,53,0.00,,,-99.99,,2015-03-29 13:51:00,
2015-03-29 10:21:00,31.0,14.0,-100.00,ENE,75,9.0,16.0,49,0.00,,,-99.99,,2015-03-29 14:21:00,
2015-03-29 10:52:00,32.0,15.0,-100.00,ENE,65,10.0,19.0,48,0.00,,,-99.99,,2015-03-29 14:52:00,
2015-03-29 11:22:00,34.0,15.0,-100.00,East,90,9.0,17.0,45,0.00,,,-99.99,,2015-03-29 15:22:00,
2015-03-29 11:53:00,36.0,15.0,-100.00,ESE,115,11.0,17.0,42,0.00,,,-99.99,,2015-03-29 15:53:00,
2015-03-29 12:24:00,37.0,15.0,-100.00,East,80,8.0,16.0,40,0.00,,,-99.99,,2015-03-29 16:24:00,
2015-03-29 12:53:00,39.0,15.0,-100.00,ENE,65,6.0,12.0,37,0.00,,,-99.99,,2015-03-29 16:53:00,
2015-03-29 13:22:00,41.0,13.0,-100.00,ESE,105,9.0,19.0,31,0.00,,,-99.99,,2015-03-29 17:22:00,
2015-03-29 13:53:00,42.0,13.0,-100.00,East,95,16.0,21.0,30,0.00,,,-99.99,,2015-03-29 17:53:00,
2015-03-29 14:23:00,44.0,12.0,-100.00,East,95,13.0,23.0,27,0.00,,,-99.99,,2015-03-29 18:23:00,
2015-03-29 14:52:00,45.0,14.0,-100.00,East,85,14.0,22.0,27,0.00,,,-99.99,,2015-03-29 18:52:00,
2015-03-29 15:22:00,46.0,12.0,-100.00,SE,125,15.0,22.0,24,0.00,,,-99.99,,2015-03-29 19:22:00,
2015-03-29 15:51:00,46.0,12.0,-100.00,ESE,105,12.0,22.0,24,0.00,,,-99.99,,2015-03-29 19:51:00,
2015-03-29 16:21:00,46.0,11.0,-100.00,East,100,16.0,25.0,23,0.00,,,-99.99,,2015-03-29 20:21:00,
2015-03-29 16:52:00,47.0,11.0,-100.00,East,80,10.0,21.0,23,0.00,,,-99.99,,2015-03-29 20:52:00,